DC9VQ-13 Weather Reports


Display with metric or nautical units.
time (UTC)temp
F
wind
direction
speed
MPH
gust
MPH
rain 1hr
in
rain 24hr
in
rain mn
in
humidity
%
barometer
mb
20260506223649 53 0.0 0.0 0.00 0.10 0.00 85 1009.1
20260506222647 53 0.0 0.0 0.00 0.10 0.00 85 1009.1
20260506221645 53 0.0 0.0 0.00 0.10 0.00 85 1009.1
20260506220643 53 0.0 0.0 0.00 0.10 0.00 85 1009.0
20260506215641 53 0.0 0.0 0.00 0.10 0.10 85 1009.0
20260506214639 53 0.0 0.0 0.00 0.10 0.10 85 1008.9
20260506213637 53 0.0 0.0 0.00 0.10 0.10 85 1008.8
20260506212634 53 0.0 0.0 0.00 0.10 0.10 85 1008.8
20260506211632 54 0.0 0.0 0.00 0.10 0.10 86 1008.7
20260506210631 54 0.0 0.0 0.00 0.10 0.10 86 1008.7
20260506205629 54 0.0 0.0 0.00 0.10 0.10 86 1008.6
20260506204627 54 0.0 0.0 0.00 0.10 0.10 85 1008.6
20260506203624 54 0.0 0.0 0.00 0.10 0.10 86 1008.5
20260506202623 54 0.0 0.0 0.00 0.10 0.10 85 1008.4
20260506201621 54 0.0 0.0 0.00 0.10 0.10 85 1008.2
20260506200619 54 0.0 0.0 0.00 0.10 0.10 85 1008.1
20260506195616 55 0.0 0.0 0.00 0.10 0.10 85 1008.0
20260506194614 55 0.0 0.0 0.00 0.10 0.10 86 1008.0
20260506193613 55 0.0 0.0 0.00 0.10 0.10 86 1007.9
20260506192611 55 0.0 0.0 0.00 0.10 0.10 86 1007.8
20260506191609 55 0.0 0.0 0.00 0.10 0.10 86 1007.5
20260506190606 55 0.0 0.0 0.00 0.10 0.10 85 1007.3
20260506185604 55 0.0 0.0 0.00 0.10 0.10 86 1007.1
20260506184603 55 0.0 0.0 0.00 0.10 0.10 85 1007.1
20260506183601 56 0.0 0.0 0.00 0.10 0.10 85 1007.0
20260506182559 56 0.0 0.0 0.00 0.10 0.10 85 1006.9
20260506181556 57 0.0 0.0 0.00 0.10 0.10 84 1006.7
20260506180554 57 0.0 0.0 0.00 0.10 0.10 85 1006.8
20260506175553 57 0.0 0.0 0.02 0.10 0.10 85 1006.6
20260506174550 57 0.0 0.0 0.04 0.10 0.10 85 1006.5
20260506173549 58 0.0 0.0 0.04 0.10 0.10 85 1006.4
20260506172547 58 0.0 0.0 0.05 0.11 0.10 85 1006.2
20260506171544 58 0.0 0.0 0.06 0.11 0.10 84 1006.2
20260506170543 59 0.0 0.0 0.06 0.11 0.10 84 1006.1
20260506165541 59 0.0 0.0 0.04 0.10 0.08 83 1006.1
20260506164539 60 0.0 0.0 0.02 0.08 0.06 83 1006.1
20260506163536 60 0.0 0.0 0.02 0.09 0.06 83 1006.0
20260506162535 60 0.0 0.0 0.01 0.08 0.05 81 1006.0
20260506161533 61 0.0 0.0 0.00 0.08 0.04 79 1006.0
20260506160531 62 0.0 0.0 0.00 0.08 0.04 77 1006.0
20260506155528 62 0.0 0.0 0.00 0.08 0.04 75 1006.0
20260506154527 62 0.0 0.0 0.00 0.09 0.04 73 1005.9
20260506153525 63 0.0 0.0 0.00 0.09 0.04 71 1005.8
20260506152523 63 0.0 0.0 0.00 0.09 0.04 70 1005.7
20260506151521 64 0.0 0.0 0.00 0.09 0.04 69 1005.6
20260506150519 64 0.0 0.0 0.00 0.10 0.04 67 1005.5
20260506145517 65 0.0 0.0 0.00 0.10 0.04 65 1005.5
20260506144517 66 0.0 0.0 0.00 0.10 0.04 65 1005.5
20260506143513 67 0.0 0.0 0.00 0.10 0.04 63 1005.4
20260506142511 67 0.0 0.0 0.00 0.10 0.04 62 1005.3
20260506141509 68 0.0 0.0 0.00 0.11 0.04 63 1005.3
20260506140506 68 0.0 0.0 0.00 0.12 0.04 64 1005.2
20260506135505 68 0.0 0.0 0.00 0.13 0.04 64 1005.2
20260506134503 67 0.0 0.0 0.00 0.13 0.04 63 1005.2
20260506133000 67 0.0 0.0 0.00 0.13 0.04 66 1005.3
20260506131958 66 0.0 0.0 0.00 0.13 0.04 67 1005.3
20260506130956 66 0.0 0.0 0.00 0.13 0.04 67 1005.3
20260506125954 65 0.0 0.0 0.00 0.13 0.04 67 1005.3
20260506124952 65 0.0 0.0 0.00 0.13 0.04 67 1005.4
20260506123950 65 0.0 0.0 0.00 0.13 0.04 68 1005.4
20260506122948 65 0.0 0.0 0.00 0.13 0.04 68 1005.3
20260506121946 65 0.0 0.0 0.00 0.13 0.04 68 1005.4
20260506120944 64 0.0 0.0 0.00 0.13 0.04 69 1005.5
20260506115942 64 0.0 0.0 0.00 0.13 0.04 69 1005.4
20260506114940 64 0.0 0.0 0.00 0.13 0.04 69 1005.4
20260506113938 64 0.0 0.0 0.00 0.13 0.04 70 1005.5
20260506112935 64 0.0 0.0 0.00 0.13 0.04 69 1005.5
20260506111934 64 0.0 0.0 0.00 0.13 0.04 68 1005.6
20260506110932 64 0.0 0.0 0.00 0.13 0.04 69 1005.6
20260506105930 64 0.0 0.0 0.00 0.13 0.04 69 1005.6
20260506104928 64 0.0 0.0 0.00 0.13 0.04 70 1005.6
20260506103926 64 0.0 0.0 0.00 0.13 0.04 69 1005.5
20260506102924 64 0.0 0.0 0.00 0.13 0.04 71 1005.6
20260506101921 63 0.0 0.0 0.00 0.13 0.04 71 1005.5
20260506100921 63 0.0 0.0 0.00 0.13 0.04 72 1005.6
20260506095918 63 0.0 0.0 0.00 0.13 0.04 72 1005.6
20260506094916 63 0.0 0.0 0.00 0.13 0.04 74 1005.7
20260506093914 62 0.0 0.0 0.00 0.13 0.04 74 1005.7
20260506092913 62 0.0 0.0 0.00 0.13 0.04 77 1005.7
20260506091910 62 0.0 0.0 0.00 0.13 0.04 77 1005.8
20260506090908 62 0.0 0.0 0.00 0.13 0.04 77 1005.7
20260506085906 61 0.0 0.0 0.00 0.13 0.04 77 1005.6
20260506084904 61 0.0 0.0 0.00 0.13 0.04 77 1005.5
20260506083901 61 0.0 0.0 0.00 0.13 0.04 78 1005.4
20260506082900 61 0.0 0.0 0.00 0.13 0.04 80 1005.4
20260506081858 60 0.0 0.0 0.00 0.13 0.04 80 1005.3
20260506080855 60 0.0 0.0 0.00 0.13 0.04 85 1005.5
20260506072848 58 0.0 0.0 0.00 0.13 0.04 89 1005.5
20260506071846 58 0.0 0.0 0.00 0.13 0.04 90 1005.5
20260506070844 58 0.0 0.0 0.00 0.13 0.04 91 1005.5
20260506061834 57 0.0 0.0 0.00 0.13 0.04 93 1005.4
20260506060835 56 0.0 0.0 0.00 0.13 0.04 93 1005.4
20260506050821 56 0.0 0.0 0.00 0.13 0.04 93 1005.4
20260506044815 56 0.0 0.0 0.00 0.13 0.04 93 1005.4
20260506043814 56 0.0 0.0 0.00 0.13 0.04 93 1005.4
20260506042812 56 0.0 0.0 0.00 0.13 0.04 93 1005.4
20260506041810 56 0.0 0.0 0.00 0.13 0.04 93 1005.5
20260506040813 56 0.0 0.0 0.00 0.13 0.04 93 1005.5
20260506035805 56 0.0 0.0 0.00 0.13 0.04 93 1005.5
20260506034803 56 0.0 0.0 0.00 0.13 0.04 93 1005.6
20260506033802 56 0.0 0.0 0.00 0.13 0.04 93 1005.6
20260506032800 56 0.0 0.0 0.00 0.13 0.04 93 1005.7
20260506031758 56 0.0 0.0 0.00 0.13 0.04 93 1005.6
20260506030755 56 0.0 0.0 0.00 0.13 0.04 93 1005.6
20260506025753 56 0.0 0.0 0.00 0.13 0.04 93 1005.7
20260506024752 56 0.0 0.0 0.00 0.13 0.04 93 1005.7
20260506023750 56 0.0 0.0 0.00 0.13 0.04 93 1005.7
20260506022748 56 0.0 0.0 0.00 0.13 0.04 93 1005.7
20260506021745 56 0.0 0.0 0.00 0.13 0.04 93 1005.7
20260506020744 56 0.0 0.0 0.00 0.13 0.04 93 1005.8
20260506015742 56 0.0 0.0 0.00 0.13 0.04 92 1005.8
20260506014740 57 0.0 0.0 0.00 0.13 0.04 92 1005.9
20260506013738 57 0.0 0.0 0.00 0.13 0.04 92 1005.9
20260506012735 57 0.0 0.0 0.00 0.13 0.04 92 1005.8
20260506011734 57 0.0 0.0 0.00 0.13 0.04 92 1005.8
20260506010732 57 0.0 0.0 0.01 0.13 0.04 92 1005.9
20260506005730 58 0.0 0.0 0.02 0.13 0.04 92 1005.8
20260506004728 58 0.0 0.0 0.03 0.13 0.04 92 1005.9
20260506003726 58 0.0 0.0 0.04 0.13 0.04 92 1006.0
20260506002724 58 0.0 0.0 0.04 0.13 0.04 92 1006.0
20260506001722 58 0.0 0.0 0.04 0.13 0.04 91 1006.1
20260506000720 58 0.0 0.0 0.03 0.12 0.03 91 1006.2
20260505235718 58 0.0 0.0 0.02 0.11 0.02 91 1006.3
20260505234716 58 0.0 0.0 0.01 0.10 0.01 90 1006.3
20260505233714 58 0.0 0.0 0.00 0.09 0.00 90 1006.3
20260505232711 58 0.0 0.0 0.00 0.09 0.00 89 1006.3
20260505231710 59 0.0 0.0 0.00 0.09 0.00 89 1006.4
20260505230708 59 0.0 0.0 0.00 0.09 0.00 89 1006.4
20260505225706 59 0.0 0.0 0.00 0.09 0.00 89 1006.4
20260505224704 59 0.0 0.0 0.00 0.09 0.00 89 1006.5